[[{"header":{"parameterUnit":"m.s-1","parameterCategory":1,"la1":30.2991,"la2":30.254,"lo1":-89.0895,"lo2":-89.0444,"dy":0.0017,"dx":0.0017,"nx":28,"ny":28,"refTime":"2025-05-19T09:00:00:Z","depth":0,"parameterNumber":2,"parameterNumberName":"U-component_of_WINDS"},"data":[0,0,0,0,0,0,0,0,0,0,0,0,0,0,0,0,0,0,0,0,0,0,0,0,0,0,0,0,0,0,0,0,0,0,0,0,0,0,0,0,0,0,0,0,0,0,0,0,0,0,0,0,0,0,0,0,0,0,0.3582,0.3582,0,0.3583,0.3583,0.3583,0.3536,0.3534,0.3533,0.3532,0.3537,0.3538,0.354,0,0,0,0,0,0,0,0,0,0,0,0,0,0.3542,0.3543,0.3582,0.3582,0.3582,0.3583,0.3583,0.3583,0.3536,0.3534,0.3533,0.3531,0.3537,0.3538,0.354,0,0,0,0,0,0,0,0,0,0,0,0,0,0.3553,0.3543,0.3582,0.3559,0.3556,0.3583,0.3583,0.3583,0.3536,0.3534,0.3532,0.3531,0.3536,0.3538,0.354,0.359,0,0,0.3546,0.3547,0,0,0,0,0,0,0,0,0.3552,0.3555,0.3562,0.356,0.3558,0.3557,0.3571,0.3586,0.3537,0.3544,0.3532,0.353,0.3546,0.3547,0.3551,0.359,0.3591,0.3546,0.3547,0.3548,0.3549,0,0,0,0,0,0,0,0.3552,0.3554,0.3583,0.3562,0.356,0.3549,0.3548,0.3573,0.3556,0.3543,0.354,0.354,0.3544,0.3549,0.3551,0.3591,0.3546,0.3548,0.3549,0.355,0.3671,0.3673,0,0,0,0,0,0,0.3554,0.3554,0.3583,0.3583,0.355,0.3551,0.355,0.3559,0.3555,0.3553,0.3542,0.3538,0.3547,0.3549,0.3551,0.3609,0.3548,0.355,0.3551,0.3669,0.3671,0.3673,0,0,0,0,0,0,0.3553,0.3557,0.3582,0.3567,0.357,0.3554,0.3564,0.3561,0.3566,0.3554,0.3551,0.3551,0.3545,0.3548,0.358,0.3609,0.3551,0.3553,0.3666,0.3669,0.3672,0.3727,0,0,0,0,0,0,0.3552,0.3557,0.3575,0.3568,0.3571,0.3612,0.3566,0.3562,0.3569,0.3564,0.3561,0.3559,0.3544,0.3578,0.3582,0.3611,0.3554,0.3664,0.3668,0.3671,0.3723,0.3732,0.3739,0,0,0,0,0,0.3551,0.3592,0.3576,0.358,0.3593,0.3613,0.3615,0.3596,0.3571,0.359,0.3582,0.3559,0.3605,0.3581,0.3586,0.3616,0.3662,0.3667,0.3671,0.3719,0.373,0.3739,0,0,0,0,0,0,0.3605,0.359,0.3573,0.3613,0.3614,0.3605,0.3628,0.3608,0.3618,0.3613,0.3589,0.3589,0.3625,0.3623,0.3598,0.3664,0.3629,0.3635,0.3664,0.3674,0.3682,0.3683,0.3556,0,0,0,0,0,0.3621,0.3637,0.3624,0.366,0.3662,0.3645,0.3653,0.3638,0.3639,0.364,0.3635,0.3638,0.3652,0.3663,0.3676,0.3721,0.372,0.3744,0.3752,0.3759,0.3765,0.3788,0.3799,0.3688,0.3688,0.3688,0,0,0.3655,0.3649,0.3661,0.3671,0.367,0.3688,0.3646,0.3667,0.3681,0.3643,0.3673,0.3669,0.3671,0.371,0.3727,0.371,0.3795,0.3765,0.377,0.3772,0.3794,0.3805,0.3814,0.3691,0.3691,0.369,0,0,0.3727,0.3724,0.3753,0.3753,0.3752,0.374,0.3747,0.374,0.3736,0.3765,0.3737,0.3753,0.3779,0.3781,0.3786,0.3857,0.3836,0.3861,0.3905,0.3929,0.3938,0.3945,0.3971,0.398,0.3867,0.3867,0.3867,0,0.377,0.3795,0.3771,0.3794,0.3799,0.3764,0.3794,0.3795,0.3799,0.3804,0.3784,0.3815,0.3814,0.3853,0.3869,0.3874,0.3882,0.3863,0.3938,0.3945,0.3952,0.3976,0.3986,0.387,0.387,0.3869,0.3869,0,0.3848,0.3866,0.389,0.3893,0.3901,0.3927,0.3908,0.3919,0.3902,0.3893,0.3923,0.392,0.3931,0.3939,0.3924,0.3976,0.3965,0.3942,0.3907,0.3966,0.3989,0.3998,0.3875,0.3874,0.3873,0.3872,0,0,0.3956,0.3943,0.3953,0.3953,0.3949,0.3963,0.3987,0.3997,0.4007,0.401,0.4031,0.4052,0.403,0.4036,0.402,0.4041,0.4097,0.4015,0.4014,0.4031,0.4154,0.4172,0.4183,0.4082,0.4084,0.4085,0.4154,0,0.4026,0.4066,0.4045,0.4089,0.4105,0.4071,0.4092,0.4092,0.4084,0.4097,0.4088,0.4104,0.4073,0.4076,0.4094,0.4086,0.4122,0.4081,0.4102,0.4103,0.4104,0.4195,0.4215,0.428,0.4163,0.4164,0.4165,0,0.4113,0.4119,0.4164,0.4155,0.4161,0.418,0.4187,0.42,0.4199,0.4191,0.4196,0.4175,0.4199,0.4163,0.4197,0.4169,0.4176,0.4174,0.4176,0.4178,0.4139,0.4201,0.43,0.4311,0.4179,0.4177,0.4176,0,0.4188,0.4206,0.4235,0.4237,0.4227,0.4242,0.4239,0.4235,0.4242,0.4248,0.4253,0.4262,0.4267,0.4275,0.4258,0.4233,0.4294,0.4256,0.4289,0.4289,0.4305,0.4304,0.4408,0.4307,0.4307,0.4307,0.4307,0,0.4269,0.4298,0.4269,0.4287,0.4318,0.4293,0.4325,0.4319,0.4316,0.4333,0.4304,0.432,0.4295,0.431,0.4296,0.4326,0.4328,0.4323,0.432,0.4327,0.4328,0.4332,0.4328,0.431,0.4309,0.4309,0.4308,0,0.4359,0.434,0.437,0.4357,0.4355,0.4379,0.4368,0.4385,0.4373,0.4395,0.4398,0.4381,0.4396,0.4379,0.4393,0.4384,0.4424,0.4413,0.4424,0.4422,0.4455,0.4453,0.4567,0.4581,0.4471,0.4472,0.4473,0,0.4413,0.4434,0.4423,0.4431,0.4429,0.4443,0.445,0.4425,0.4433,0.4433,0.445,0.4462,0.447,0.4496,0.4485,0.4496,0.4485,0.4524,0.4487,0.4493,0.4487,0.4486,0.4489,0.4533,0.4534,0.4535,0.4536,0,0.451,0.4499,0.4508,0.4514,0.4522,0.4526,0.4528,0.4537,0.4512,0.4522,0.4536,0.4543,0.4556,0.4569,0.4576,0.4573,0.4551,0.4547,0.4556,0.4564,0.457,0.4568,0.4446,0.4546,0.4545,0.4544,0.4543,0.4543,0.4584,0.4601,0.4595,0.4607,0.4605,0.4607,0.4622,0.4611,0.4622,0.463,0.4615,0.4633,0.4631,0.4638,0.4638,0.4652,0.4635,0.4647,0.465,0.4654,0.4659,0.4566,0.4653,0.4653,0.4652,0.4652,0.4652,0,0.468,0.4674,0.4685,0.4687,0.4696,0.4672,0.4673,0.4682,0.4698,0.4697,0.4705,0.4721,0.4733,0.4722,0.4732,0.4746,0.4736,0.4749,0.4749,0.4749,0.4673,0.4666,0.4757,0.4757,0.4757,0.4757,0.4757,0.4757,0.4731,0.4759,0.4747,0.4774,0.4768,0.4784,0.4787,0.4788,0.4787,0.4806,0.4815,0.4807,0.4803,0.4811,0.4821,0.4818,0.4823,0.4841,0.4834,0.4764,0.4754,0.4744,0.4737,0.4842,0.4842,0.4908,0.4908,0.4909]},{"header":{"parameterUnit":"m.s-1","parameterCategory":1,"la1":30.2991,"la2":30.254,"lo1":-89.0895,"lo2":-89.0444,"dy":0.0017,"dx":0.0017,"nx":28,"ny":28,"refTime":"2025-05-19T09:00:00:Z","depth":0,"parameterNumber":3,"parameterNumberName":"V-component_of_WINDS"},"data":[0,0,0,0,0,0,0,0,0,0,0,0,0,0,0,0,0,0,0,0,0,0,0,0,0,0,0,0,0,0,0,0,0,0,0,0,0,0,0,0,0,0,0,0,0,0,0,0,0,0,0,0,0,0,0,0,0,0,6.3691,6.3693,0,6.3817,6.3818,6.382,6.3796,6.3794,6.3792,6.379,6.3907,6.3912,6.3917,0,0,0,0,0,0,0,0,0,0,0,0,0,6.3419,6.3424,6.3691,6.3693,6.3694,6.3817,6.3819,6.382,6.3796,6.3794,6.3791,6.3789,6.3905,6.3911,6.3918,0,0,0,0,0,0,0,0,0,0,0,0,0,6.354,6.3426,6.3691,6.3698,6.3699,6.3817,6.3819,6.3821,6.3797,6.3794,6.379,6.3787,6.3903,6.3911,6.3919,6.4033,0,0,6.3942,6.3946,0,0,0,0,0,0,0,0,6.3533,6.355,6.3695,6.3697,6.37,6.3788,6.3766,6.3892,6.3798,6.376,6.3789,6.3786,6.3869,6.388,6.391,6.4039,6.4044,6.3943,6.3948,6.3951,6.3953,0,0,0,0,0,0,0,6.3525,6.3544,6.3741,6.3697,6.37,6.369,6.3704,6.3789,6.3831,6.3763,6.3761,6.3777,6.387,6.3903,6.3913,6.4046,6.3943,6.395,6.3955,6.3958,6.4274,6.4277,0,0,0,0,0,0,6.3516,6.3538,6.3737,6.3744,6.3607,6.3698,6.3713,6.3763,6.383,6.3838,6.378,6.3776,6.3891,6.3904,6.3917,6.4056,6.3951,6.3958,6.3963,6.427,6.4274,6.4278,0,0,0,0,0,0,6.351,6.3534,6.3732,6.3641,6.3665,6.3707,6.3762,6.3767,6.38,6.3844,6.385,6.3807,6.3889,6.3906,6.4005,6.4059,6.3962,6.3969,6.4265,6.4271,6.4276,6.4334,0,0,0,0,0,0,6.3502,6.3532,6.3579,6.3642,6.367,6.3821,6.3765,6.3772,6.3815,6.381,6.387,6.3877,6.3888,6.3994,6.4013,6.4068,6.3975,6.4261,6.4268,6.4275,6.4328,6.4341,6.4353,0,0,0,0,0,6.3493,6.3588,6.3581,6.3605,6.373,6.3825,6.384,6.3854,6.3819,6.3865,6.3893,6.3875,6.405,6.4004,6.4025,6.4084,6.4257,6.4266,6.4274,6.4322,6.4338,6.4352,0,0,0,0,0,0,6.3525,6.3596,6.359,6.3709,6.3762,6.3821,6.3879,6.3871,6.3932,6.3924,6.3935,6.3949,6.405,6.4077,6.4024,6.4198,6.4148,6.4161,6.4178,6.4194,6.4206,6.4197,6.3982,0,0,0,0,0,6.3547,6.3622,6.3678,6.3777,6.3804,6.3837,6.3878,6.3885,6.3938,6.3959,6.3994,6.4044,6.411,6.4153,6.4216,6.4331,6.4343,6.4382,6.4394,6.4404,6.4415,6.4477,6.4495,6.4306,6.4306,6.4306,0,0,6.3591,6.3639,6.3685,6.3785,6.3826,6.39,6.3856,6.3935,6.3989,6.397,6.4068,6.4095,6.415,6.4258,6.4307,6.4283,6.447,6.4415,6.4423,6.4428,6.4488,6.4506,6.4521,6.4312,6.4311,6.431,0,0,6.3709,6.3754,6.3842,6.3885,6.395,6.3972,6.3993,6.4054,6.4072,6.4171,6.4158,6.422,6.4334,6.4375,6.441,6.4544,6.4529,6.4564,6.4629,6.4689,6.4704,6.4717,6.4764,6.4781,6.4574,6.4575,6.4575,0,6.3755,6.387,6.3887,6.3969,6.4012,6.4003,6.409,6.4129,6.421,6.4238,6.4211,6.4355,6.4391,6.4508,6.4542,6.457,6.4593,6.4557,6.4701,6.4715,6.4727,6.4772,6.479,6.4578,6.4578,6.4578,6.4577,0,6.3922,6.4001,6.4064,6.4147,6.4197,6.4281,6.4307,6.4355,6.4357,6.438,6.448,6.4523,6.4596,6.4623,6.4624,6.474,6.4724,6.4699,6.4649,6.4749,6.4791,6.4809,6.4584,6.4582,6.4581,6.458,0,0,6.4064,6.4157,6.4179,6.4217,6.4288,6.4348,6.443,6.4505,6.4545,6.46,6.4668,6.4765,6.4743,6.4783,6.4788,6.4841,6.4944,6.481,6.4811,6.4833,6.5074,6.5092,6.5112,6.4935,6.4938,6.4941,6.5069,0,6.4189,6.4339,6.4357,6.4489,6.4562,6.4553,6.4624,6.4674,6.4697,6.4759,6.4783,6.4852,6.4818,6.4842,6.4894,6.4921,6.4993,6.4912,6.4995,6.4998,6.4982,6.5134,6.5154,6.5273,6.5086,6.5088,6.5091,0,6.4355,6.442,6.4561,6.4623,6.4654,6.4718,6.4788,6.4848,6.4902,6.4915,6.4961,6.496,6.5041,6.4988,6.5099,6.5044,6.5079,6.5097,6.5101,6.5109,6.505,6.5146,6.5311,6.5329,6.5117,6.5115,6.5113,0,6.4444,6.4566,6.4667,6.4699,6.4773,6.4819,6.4851,6.4903,6.4947,6.5006,6.5034,6.51,6.5136,6.5186,6.5201,6.5161,6.5311,6.526,6.5322,6.5322,6.5353,6.5351,6.5526,6.5376,6.5376,6.5376,6.5375,0,6.4582,6.4668,6.4708,6.477,6.4865,6.4883,6.4975,6.5005,6.5051,6.5116,6.511,6.517,6.5187,6.5248,6.526,6.5349,6.5365,6.5376,6.5378,6.5377,6.5376,6.54,6.5392,6.538,6.5379,6.5378,6.5378,0,6.4698,6.4728,6.4837,6.49,6.4918,6.4985,6.5037,6.5094,6.5117,6.5199,6.5218,6.5253,6.5326,6.5346,6.5431,6.5439,6.5544,6.5539,6.5528,6.5527,6.5588,6.5582,6.5785,6.5812,6.5644,6.5646,6.5647,0,6.4784,6.4851,6.4922,6.4967,6.5003,6.5074,6.512,6.5139,6.5186,6.5254,6.5302,6.5375,6.5434,6.5549,6.558,6.5645,6.564,6.5707,6.565,6.5646,6.5641,6.5637,6.5643,6.5717,6.5719,6.572,6.5722,0,6.4933,6.4945,6.5014,6.5088,6.5144,6.5201,6.5256,6.5292,6.5319,6.5371,6.5448,6.5494,6.5583,6.5654,6.572,6.5749,6.5739,6.574,6.5757,6.5757,6.5747,6.5753,6.5557,6.5735,6.5733,6.5732,6.5732,6.5731,6.5036,6.5095,6.5156,6.5232,6.5276,6.5329,6.5386,6.5418,6.5483,6.5561,6.5566,6.5649,6.57,6.5788,6.5821,6.5883,6.5863,6.5889,6.5895,6.5901,6.5906,6.5738,6.5895,6.5894,6.5894,6.5894,6.5894,0,6.5185,6.5224,6.5294,6.5374,6.5433,6.5423,6.5484,6.5533,6.5607,6.5658,6.5717,6.5804,6.5873,6.591,6.5977,6.602,6.6017,6.6037,6.6034,6.604,6.5921,6.5899,6.6038,6.6038,6.6038,6.6038,6.6038,6.6038,6.5269,6.537,6.5389,6.551,6.5546,6.5631,6.5666,6.5713,6.5754,6.5853,6.5912,6.5937,6.5981,6.6052,6.6114,6.6123,6.6148,6.617,6.6176,6.6064,6.6049,6.6035,6.6014,6.6176,6.6176,6.6291,6.6292,6.6293]}]]